Regional Weather Roundup
Issued by NWS

Home | Current Version | Previous Version | Text Only | Print | Product List | Glossary Off
Versions: 1 2 3 4 5 6 7 8 9 10 11 12 13 14 15 16 17 18 19 20 21 22 23 24 25 26 27

000
ASUS45 KPSR 272310
RWRAZ

ARIZONA HOURLY REGIONAL WEATHER ROUNDUP
NATIONAL WEATHER SERVICE PHOENIX AZ
400 PM MST WED APR 27 2016

NOTE: FAIR INDICATES FEW OR NO CLOUDS BELOW 12,000 FEET WITH NO
SIGNIFICANT WEATHER AND/OR OBSTRUCTIONS TO VISIBILITY.

AZZ001>003-036-280000-
NORTHWEST ARIZONA

CITY           SKY/WX    TMP DP  RH WIND       PRES   REMARKS
BULLHEAD CITY  MOSUNNY   82  25  12 S14       29.61F
KINGMAN        PTSUNNY   72  25  17 SW23G32   29.71F
$$

AZZ004>008-015-016-018-280000-
NORTH CENTRAL ARIZONA

CITY           SKY/WX    TMP DP  RH WIND       PRES   REMARKS
GRAND CANYON   LGT RAIN  53  28  38 SW14G28   29.82S
WILLIAMS       CLOUDY    55  23  28 SW24G30   29.89F
PRESCOTT       MOSUNNY   65  25  22 SW21G28   29.78F
FLAGSTAFF      CLOUDY    55  24  30 SW25G32   29.83F
PAYSON         SUNNY     64  19  17 SW8G20    29.83F
PAGE           CLOUDY    64  33  31 VRB6      29.71F
$$

AZZ009>014-017-280000-
NORTHEAST ARIZONA

CITY           SKY/WX    TMP DP  RH WIND       PRES   REMARKS
WINSLOW        PTSUNNY   69  24  18 S16G24    29.73F
SAINT JOHNS    MOSUNNY   66  18  15 SW18G30   29.75F
WINDOW ROCK    CLOUDY    59  22  24 W9G22     29.81F
SHOW LOW       SUNNY     59  18  20 SW22G29   29.84F
$$

AZZ023-280000-
GREATER PHOENIX AREA

CITY           SKY/WX    TMP DP  RH WIND       PRES   REMARKS
PHOENIX        MOSUNNY   81  26  13 VRB6      29.66F
BUCKEYE        SUNNY     81  27  13 SW5       29.68F
GLENDALE       MOSUNNY   82  27  13 S12G24    29.68F
LUKE AFB       SUNNY     82  27  13 SW15      29.66F
DEER VALLEY    SUNNY     80  26  13 SW13      29.68F
SCOTTSDALE     SUNNY     79  23  12 S5        29.70F
MESA-FALCON    MOSUNNY  N/A N/A N/A S12       29.66F
MESA-GATEWAY   MOSUNNY   79  27  14 SW7       29.70F
CHANDLER       MOSUNNY   82  27  13 S14G23    29.68F
$$

AZZ027-028-280000-
SOUTHWEST MARICOPA COUNTY AND PINAL COUNTY

CITY           SKY/WX    TMP DP  RH WIND       PRES   REMARKS
CASA GRANDE    SUNNY     82  25  12 W10       29.70F
GILA BEND      MOSUNNY   84  23  11 S14       29.65F
$$

AZZ503-504-507>509-280000-
SOUTHEAST ARIZONA

CITY           SKY/WX    TMP DP  RH WIND       PRES   REMARKS
TUCSON         MOSUNNY   82  14   8 W9        29.73F
DAVIS-MONTHAN  CLOUDY    80  14   8 W15G21    29.71F
RYAN FIELD     SUNNY     82  21  10 MISG      29.73F
NOGALES        SUNNY     77  13   9 SW17G25   29.80F
SIERRA VISTA   SUNNY     75   9   7 W14       29.82F
DOUGLAS        SUNNY     79  13   8 SW18G33   29.78F
SAFFORD        CLOUDY    77  21  12 NW7       29.71F
$$

AZZ020-021-025-026-031-280000-
SOUTHWEST ARIZONA

CITY           SKY/WX    TMP DP  RH WIND       PRES   REMARKS
YUMA           MOSUNNY   85  33  15 W14G21    29.64F
$$

CAZ031-033-041-043-047-048-061-280000-
SOUTHERN CALIFORNIA

CITY           SKY/WX    TMP DP  RH WIND       PRES   REMARKS
DOWNTOWN L.A.  SUNNY     67  45  45 W7        29.80F
L.A. AIRPORT   MOSUNNY   67  44  43 SW20G26   29.80F
SAN DIEGO      MOSUNNY   67  49  52 W12       29.87S
BURBANK        SUNNY     69  40  34 S13       29.77F
ONTARIO        MOSUNNY   70  47  43 W13G25    29.78F
RIVERSIDE      PTSUNNY   72  47  40 W20G25    29.78F
PALM SPRINGS   MOSUNNY   83  38  20 NW17G32   29.64F
EL CENTRO NAS  MOSUNNY   86  35  16 SW15G24   29.64F
IMPERIAL       SUNNY     87  34  15 SW9       29.62F
BLYTHE         SUNNY     85  31  14 SW17G23   29.63F
NEEDLES        MOSUNNY   84  26  12 W14G23    29.61F
$$

NVZ020-UTZ003-280000-
SOUTHERN NEVADA-UTAH

CITY           SKY/WX    TMP DP  RH WIND       PRES   REMARKS
LAS VEGAS      PTSUNNY   72  31  22 NW21G31   29.62F
SALT LAKE CITY CLOUDY    57  36  45 N6        29.75F
$$

NMZ009-TXZ055-280000-
NEW MEXICO-WEST TEXAS

CITY           SKY/WX    TMP DP  RH WIND       PRES   REMARKS
ALBUQUERQUE    PTSUNNY   66  22  18 W12       29.75F
EL PASO        MOSUNNY   79  11   7 W17       29.76F
$$


........................KEY........................
SKY/WX - SKY CONDITION/WEATHER
TMP    - TEMPERATURE IN FAHRENHEIT
DP     - DEW POINT IN FAHRENHEIT
RH     - RELATIVE HUMIDITY IN PERCENT
WIND   - DIRECTION AND SPEED IN MILES PER HOUR (MPH)
VRB    - VARIABLE WIND DIRECTION
PRES   - MEAN SEA LEVEL PRESSURE IN INCHES OF MERCURY
         F - FALLING PRESSURE   R - RISING PRESSURE
         S - STEADY PRESSURE
VSB    - VISIBILITY IN MILES
HX     - HEAT INDEX IN FAHRENHEIT
WCI    - WIND CHILL INDEX IN FAHRENHEIT
TC     - TEMPERATURE IN CELSIUS WHICH IS ALSO KNOWN AS
         TEMPERATURE IN CENTIGRADE
AFB    - AIR FORCE BASE
         LUKE AFB IS LUKE AIR FORCE BASE
         DAVIS-MONTHAN IS DAVIS-MONTHAN AIR FORCE BASE
NAS    - NAVAL AIR STATION
         EL CENTRO NAS IS EL CENTRO NAVAL AIR STATION
N/A    - NOT AVAILABLE





USA.gov is the U.S. government's official web portal to all federal, state and local government web resources and services.